GTI842 SKBO-MPTO

Flight info

Callsign GTI842
Flight time 1h 5m
Altitude 36000
Route TOBKI1S VASIL UL423 PULOX DCT SIGUN ISOKO2B
Aircraft B77L/H-SDE1E2E3FGHIJ2J3J4J5M1RWXY/LB1D1

Departure

Time 2026-05-08 05:01
Airport El Dorado International Airport (SKBO)

Arrival

Time 2026-05-08 06:06
Airport Tocumen International Airport (MPTO)
Time Latitude Longitude Altitude Speed Heading
2026-05-08 04:44 4.69054 -74.13683 8375 ft 0 kts 37°
2026-05-08 04:48 4.69053 -74.13684 8375 ft 1 kts 37°
2026-05-08 04:49 4.69041 -74.13693 8375 ft 2 kts 37°
2026-05-08 04:49 4.69029 -74.13702 8375 ft 2 kts 37°
2026-05-08 04:49 4.69017 -74.13711 8374 ft 1 kts 37°
2026-05-08 04:49 4.69010 -74.13717 8374 ft 2 kts 31°
2026-05-08 04:50 4.68996 -74.13722 8374 ft 2 kts
2026-05-08 04:50 4.68981 -74.13721 8374 ft 2 kts 343°
2026-05-08 04:50 4.68967 -74.13715 8374 ft 2 kts 321°
2026-05-08 04:50 4.68960 -74.13708 8374 ft 0 kts 307°
2026-05-08 04:51 4.68958 -74.13705 8374 ft 0 kts 307°
2026-05-08 04:52 4.68959 -74.13707 8374 ft 1 kts 307°
2026-05-08 04:53 4.68977 -74.13730 8374 ft 6 kts 308°
2026-05-08 04:53 4.69019 -74.13785 8374 ft 12 kts 307°
2026-05-08 04:53 4.69079 -74.13864 8374 ft 14 kts 304°
2026-05-08 04:53 4.69107 -74.13950 8374 ft 13 kts 277°
2026-05-08 04:54 4.69143 -74.14043 8374 ft 16 kts 306°
2026-05-08 04:54 4.69219 -74.14142 8373 ft 19 kts 307°
2026-05-08 04:54 4.69307 -74.14259 8374 ft 22 kts 307°
2026-05-08 04:54 4.69409 -74.14393 8374 ft 25 kts 307°
2026-05-08 04:55 4.69518 -74.14537 8374 ft 26 kts 307°
2026-05-08 04:55 4.69628 -74.14683 8375 ft 26 kts 307°
2026-05-08 04:55 4.69740 -74.14826 8375 ft 26 kts 307°
2026-05-08 04:55 4.69850 -74.14973 8376 ft 26 kts 306°
2026-05-08 04:56 4.69959 -74.15118 8376 ft 26 kts 307°
2026-05-08 04:56 4.70069 -74.15265 8376 ft 26 kts 307°
2026-05-08 04:56 4.70181 -74.15414 8375 ft 26 kts 308°
2026-05-08 04:56 4.70297 -74.15563 8373 ft 27 kts 307°
2026-05-08 04:57 4.70411 -74.15717 8371 ft 27 kts 307°
2026-05-08 04:57 4.70528 -74.15870 8368 ft 27 kts 307°
2026-05-08 04:57 4.70643 -74.16019 8365 ft 26 kts 307°
2026-05-08 04:57 4.70748 -74.16160 8363 ft 24 kts 307°
2026-05-08 04:58 4.70848 -74.16292 8362 ft 23 kts 307°
2026-05-08 04:58 4.70942 -74.16417 8361 ft 21 kts 307°
2026-05-08 04:58 4.71034 -74.16537 8361 ft 21 kts 307°
2026-05-08 04:58 4.71126 -74.16657 8361 ft 21 kts 307°
2026-05-08 04:59 4.71194 -74.16750 8361 ft 12 kts 299°
2026-05-08 04:59 4.71178 -74.16818 8361 ft 10 kts 222°
2026-05-08 04:59 4.71116 -74.16866 8361 ft 12 kts 216°
2026-05-08 04:59 4.71033 -74.16883 8360 ft 13 kts 151°
2026-05-08 05:00 4.70950 -74.16785 8360 ft 28 kts 127°
2026-05-08 05:00 4.70751 -74.16522 8360 ft 76 kts 127°
2026-05-08 05:00 4.70305 -74.15932 8369 ft 134 kts 127°
2026-05-08 05:00 4.69623 -74.15031 8375 ft 187 kts 126°
2026-05-08 05:01 4.68774 -74.13917 8684 ft 204 kts 128°
2026-05-08 05:01 4.67894 -74.12798 9287 ft 211 kts 134°
2026-05-08 05:01 4.66650 -74.12022 9979 ft 215 kts 166°
2026-05-08 05:01 4.65174 -74.12022 10666 ft 218 kts 199°
2026-05-08 05:02 4.63897 -74.12816 11194 ft 221 kts 230°
2026-05-08 05:02 4.63207 -74.14187 11584 ft 227 kts 255°
2026-05-08 05:02 4.62798 -74.15778 11901 ft 244 kts 256°
2026-05-08 05:02 4.62385 -74.17467 12351 ft 253 kts 257°
2026-05-08 05:03 4.61968 -74.19173 12950 ft 258 kts 256°
2026-05-08 05:03 4.61542 -74.20921 13520 ft 262 kts 257°
2026-05-08 05:03 4.61161 -74.22763 13934 ft 277 kts 260°
2026-05-08 05:03 4.60798 -74.24721 14273 ft 295 kts 259°
2026-05-08 05:04 4.60406 -74.26799 14625 ft 313 kts 262°
2026-05-08 05:04 4.60194 -74.28988 15101 ft 325 kts 267°
2026-05-08 05:04 4.60075 -74.31271 15880 ft 328 kts 268°
2026-05-08 05:04 4.59961 -74.33534 16631 ft 331 kts 268°
2026-05-08 05:05 4.59840 -74.35836 17350 ft 335 kts 267°
2026-05-08 05:05 4.59716 -74.38167 18030 ft 339 kts 268°
2026-05-08 05:05 4.59784 -74.40552 18715 ft 343 kts 277°
2026-05-08 05:05 4.60220 -74.42883 19428 ft 345 kts 288°
2026-05-08 05:06 4.61279 -74.45022 20027 ft 348 kts 309°
2026-05-08 05:06 4.62960 -74.46781 20701 ft 350 kts 319°
2026-05-08 05:06 4.64767 -74.48418 21288 ft 357 kts 319°
2026-05-08 05:06 4.66668 -74.50124 21656 ft 372 kts 319°
2026-05-08 05:07 4.68625 -74.51881 21999 ft 386 kts 319°
2026-05-08 05:07 4.70664 -74.53709 22337 ft 401 kts 319°
2026-05-08 05:07 4.72790 -74.55617 22652 ft 416 kts 319°
2026-05-08 05:07 4.74976 -74.57580 22947 ft 430 kts 319°
2026-05-08 05:08 4.77241 -74.59613 23207 ft 445 kts 318°
2026-05-08 05:08 4.79587 -74.61720 23586 ft 456 kts 319°
2026-05-08 05:08 4.81964 -74.63854 24173 ft 461 kts 318°
2026-05-08 05:08 4.84349 -74.65997 24821 ft 465 kts 318°
2026-05-08 05:09 4.86769 -74.68172 25455 ft 469 kts 317°
2026-05-08 05:09 4.89229 -74.70382 26089 ft 473 kts 317°
2026-05-08 05:09 4.91660 -74.72590 26728 ft 477 kts 315°
2026-05-08 05:09 4.93865 -74.75098 27384 ft 480 kts 306°
2026-05-08 05:10 4.95661 -74.77941 28016 ft 483 kts 297°
2026-05-08 05:10 4.98652 -74.83987 29279 ft 491 kts 295°
2026-05-08 05:10 5.00156 -74.87080 29994 ft 493 kts 295°
2026-05-08 05:11 5.01640 -74.90133 30864 ft 491 kts 295°
2026-05-08 05:11 5.03134 -74.93204 31788 ft 487 kts 295°
2026-05-08 05:11 5.04615 -74.96249 32646 ft 484 kts 294°
2026-05-08 05:11 5.06068 -74.99236 33522 ft 481 kts 295°
2026-05-08 05:12 5.07529 -75.02241 34493 ft 477 kts 295°
2026-05-08 05:12 5.08960 -75.05183 35477 ft 472 kts 295°
2026-05-08 05:12 5.10410 -75.08167 36145 ft 472 kts 295°
2026-05-08 05:13 5.13368 -75.14250 36275 ft 468 kts 295°
2026-05-08 05:13 5.16723 -75.20008 36340 ft 472 kts 308°
2026-05-08 05:14 5.21138 -75.25088 36404 ft 485 kts 311°
2026-05-08 05:14 5.25612 -75.30135 36401 ft 483 kts 311°
2026-05-08 05:15 5.30076 -75.35176 36352 ft 484 kts 311°
2026-05-08 05:15 5.34553 -75.40237 36311 ft 484 kts 311°
2026-05-08 05:16 5.39010 -75.45279 36283 ft 484 kts 311°
2026-05-08 05:16 5.43489 -75.50347 36271 ft 484 kts 311°
2026-05-08 05:17 5.47965 -75.55414 36274 ft 484 kts 310°
2026-05-08 05:17 5.52431 -75.60471 36295 ft 484 kts 311°
2026-05-08 05:18 5.56892 -75.65524 36318 ft 483 kts 310°
2026-05-08 05:18 5.61390 -75.70618 36337 ft 484 kts 310°
2026-05-08 05:19 5.65876 -75.75703 36344 ft 484 kts 310°
2026-05-08 05:19 5.70354 -75.80778 36339 ft 484 kts 310°
2026-05-08 05:20 5.74719 -75.85911 36313 ft 485 kts 309°
2026-05-08 05:20 5.79026 -75.91110 36289 ft 484 kts 309°
2026-05-08 05:21 5.83393 -75.96372 36270 ft 483 kts 309°
2026-05-08 05:21 5.87712 -76.01572 36258 ft 485 kts 309°
2026-05-08 05:22 5.92019 -76.06754 36267 ft 484 kts 309°
2026-05-08 05:22 5.96354 -76.11968 36294 ft 484 kts 309°
2026-05-08 05:23 6.00665 -76.17155 36364 ft 485 kts 309°
2026-05-08 05:23 6.04992 -76.22362 36451 ft 483 kts 309°
2026-05-08 05:24 6.09278 -76.27521 36453 ft 483 kts 309°
2026-05-08 05:24 6.13618 -76.32746 36349 ft 483 kts 309°
2026-05-08 05:25 6.17906 -76.37910 36251 ft 482 kts 309°
2026-05-08 05:25 6.22217 -76.43102 36212 ft 484 kts 309°
2026-05-08 05:26 6.26559 -76.48334 36121 ft 483 kts 309°
2026-05-08 05:26 6.30875 -76.53536 36057 ft 483 kts 309°
2026-05-08 05:27 6.35169 -76.58713 36026 ft 483 kts 309°
2026-05-08 05:27 6.39473 -76.63902 35986 ft 483 kts 309°
2026-05-08 05:28 6.43788 -76.69109 35976 ft 484 kts 309°
2026-05-08 05:28 6.48090 -76.74299 35929 ft 483 kts 309°
2026-05-08 05:29 6.52388 -76.79486 35917 ft 483 kts 309°
2026-05-08 05:29 6.56685 -76.84675 35922 ft 484 kts 309°
2026-05-08 05:30 6.60986 -76.89869 35903 ft 483 kts 309°
2026-05-08 05:30 6.65274 -76.95049 35906 ft 483 kts 309°
2026-05-08 05:31 6.69581 -77.00253 35906 ft 484 kts 309°
2026-05-08 05:31 6.73901 -77.05476 35897 ft 483 kts 309°
2026-05-08 05:32 6.78192 -77.10664 35895 ft 484 kts 309°
2026-05-08 05:32 6.82519 -77.15898 35894 ft 485 kts 309°
2026-05-08 05:33 6.86814 -77.21094 35897 ft 485 kts 309°
2026-05-08 05:33 6.91147 -77.26337 35895 ft 484 kts 309°
2026-05-08 05:34 6.95442 -77.31538 35895 ft 485 kts 309°
2026-05-08 05:34 6.99774 -77.36784 35896 ft 484 kts 309°
2026-05-08 05:35 7.04070 -77.41988 35892 ft 483 kts 309°
2026-05-08 05:35 7.08363 -77.47191 35893 ft 484 kts 309°
2026-05-08 05:36 7.12650 -77.52387 35897 ft 484 kts 309°
2026-05-08 05:36 7.16955 -77.57609 35897 ft 485 kts 309°
2026-05-08 05:37 7.21252 -77.62820 35896 ft 486 kts 309°
2026-05-08 05:37 7.25577 -77.68068 35902 ft 484 kts 309°
2026-05-08 05:38 7.29875 -77.73286 35904 ft 483 kts 309°
2026-05-08 05:38 7.34159 -77.78487 35902 ft 483 kts 309°
2026-05-08 05:39 7.38460 -77.83710 35901 ft 483 kts 309°
2026-05-08 05:39 7.42858 -77.88865 35900 ft 485 kts 310°
2026-05-08 05:40 7.47287 -77.93980 35704 ft 481 kts 310°
2026-05-08 05:40 7.49518 -77.96561 35254 ft 484 kts 310°
2026-05-08 05:40 7.51720 -77.99112 34755 ft 485 kts 311°
2026-05-08 05:40 7.53948 -78.01694 34046 ft 484 kts 311°
2026-05-08 05:41 7.56164 -78.04263 33282 ft 484 kts 311°
2026-05-08 05:41 7.58373 -78.06825 32474 ft 485 kts 311°
2026-05-08 05:41 7.60584 -78.09390 31693 ft 486 kts 312°
2026-05-08 05:41 7.62796 -78.11958 30996 ft 487 kts 312°
2026-05-08 05:42 7.65035 -78.14555 30558 ft 495 kts 312°
2026-05-08 05:42 7.67310 -78.17197 30066 ft 500 kts 312°
2026-05-08 05:42 7.69559 -78.19810 29544 ft 497 kts 312°
2026-05-08 05:42 7.71823 -78.22439 29008 ft 492 kts 312°
2026-05-08 05:43 7.74036 -78.25011 28483 ft 487 kts 312°
2026-05-08 05:43 7.76256 -78.27593 27953 ft 482 kts 313°
2026-05-08 05:43 7.78451 -78.30143 27405 ft 478 kts 313°
2026-05-08 05:43 7.80622 -78.32668 26848 ft 475 kts 313°
2026-05-08 05:44 7.82764 -78.35158 26277 ft 472 kts 313°
2026-05-08 05:44 7.84907 -78.37650 25701 ft 470 kts 313°
2026-05-08 05:44 7.87031 -78.40121 25126 ft 467 kts 313°
2026-05-08 05:44 7.89156 -78.42593 24542 ft 464 kts 313°
2026-05-08 05:45 7.91266 -78.45049 23965 ft 462 kts 313°
2026-05-08 05:45 7.93367 -78.47494 23386 ft 459 kts 313°
2026-05-08 05:45 7.95437 -78.49903 22819 ft 456 kts 313°
2026-05-08 05:45 7.97503 -78.52307 22249 ft 454 kts 313°
2026-05-08 05:46 7.99586 -78.54733 21682 ft 452 kts 313°
2026-05-08 05:46 8.01625 -78.57108 21114 ft 450 kts 313°
2026-05-08 05:46 8.03663 -78.59482 20533 ft 448 kts 313°
2026-05-08 05:46 8.05706 -78.61861 19942 ft 446 kts 313°
2026-05-08 05:47 8.07715 -78.64201 19367 ft 444 kts 313°
2026-05-08 05:47 8.09736 -78.66557 18771 ft 442 kts 313°
2026-05-08 05:47 8.11747 -78.68901 18176 ft 440 kts 313°
2026-05-08 05:47 8.13751 -78.71236 17657 ft 435 kts 313°
2026-05-08 05:48 8.15688 -78.73497 17563 ft 419 kts 313°
2026-05-08 05:48 8.17562 -78.75684 17446 ft 400 kts 313°
2026-05-08 05:48 8.19322 -78.77739 17311 ft 377 kts 313°
2026-05-08 05:48 8.21005 -78.79703 17174 ft 356 kts 313°
2026-05-08 05:49 8.22585 -78.81545 17077 ft 342 kts 313°
2026-05-08 05:49 8.24192 -78.83264 16895 ft 333 kts 319°
2026-05-08 05:49 8.25891 -78.84878 16541 ft 338 kts 320°
2026-05-08 05:49 8.27632 -78.86511 16149 ft 339 kts 320°
2026-05-08 05:50 8.29340 -78.88120 15796 ft 337 kts 320°
2026-05-08 05:50 8.31048 -78.89734 15457 ft 334 kts 320°
2026-05-08 05:50 8.32737 -78.91331 15116 ft 332 kts 320°
2026-05-08 05:50 8.34427 -78.92931 14783 ft 329 kts 320°
2026-05-08 05:51 8.36103 -78.94518 14444 ft 328 kts 320°
2026-05-08 05:51 8.37748 -78.96075 14119 ft 327 kts 320°
2026-05-08 05:51 8.39418 -78.97657 13781 ft 326 kts 320°
2026-05-08 05:51 8.41057 -78.99210 13451 ft 324 kts 320°
2026-05-08 05:52 8.42699 -79.00766 13125 ft 321 kts 320°
2026-05-08 05:52 8.44328 -79.02309 12805 ft 320 kts 320°
2026-05-08 05:52 8.45945 -79.03841 12477 ft 319 kts 320°
2026-05-08 05:52 8.47560 -79.05370 12153 ft 317 kts 320°
2026-05-08 05:53 8.49176 -79.06903 11828 ft 315 kts 320°
2026-05-08 05:53 8.50757 -79.08402 11518 ft 312 kts 320°
2026-05-08 05:53 8.52354 -79.09916 11193 ft 310 kts 320°
2026-05-08 05:53 8.53919 -79.11400 10877 ft 308 kts 320°
2026-05-08 05:54 8.55462 -79.12863 10564 ft 305 kts 320°
2026-05-08 05:54 8.57012 -79.14333 10259 ft 303 kts 320°
2026-05-08 05:54 8.58541 -79.15782 9953 ft 300 kts 320°
2026-05-08 05:54 8.60060 -79.17224 9615 ft 299 kts 320°
2026-05-08 05:55 8.61561 -79.18648 9263 ft 292 kts 320°
2026-05-08 05:55 8.63054 -79.20064 8987 ft 292 kts 320°
2026-05-08 05:55 8.64516 -79.21451 8659 ft 291 kts 320°
2026-05-08 05:55 8.65991 -79.22851 8333 ft 289 kts 320°
2026-05-08 05:56 8.67444 -79.24248 8011 ft 289 kts 316°
2026-05-08 05:56 8.68775 -79.25787 7690 ft 288 kts 312°
2026-05-08 05:56 8.70039 -79.27348 7359 ft 288 kts 312°
2026-05-08 05:56 8.71307 -79.28918 7030 ft 287 kts 312°
2026-05-08 05:57 8.72565 -79.30469 6678 ft 285 kts 312°
2026-05-08 05:57 8.73805 -79.31996 6375 ft 278 kts 312°
2026-05-08 05:57 8.75038 -79.33514 6083 ft 276 kts 312°
2026-05-08 05:57 8.76255 -79.35012 5719 ft 275 kts 312°
2026-05-08 05:58 8.77442 -79.36473 5429 ft 266 kts 312°
2026-05-08 05:58 8.78600 -79.37899 5143 ft 259 kts 313°
2026-05-08 05:58 8.79729 -79.39289 4855 ft 253 kts 313°
2026-05-08 05:58 8.80830 -79.40643 4584 ft 248 kts 313°
2026-05-08 05:59 8.81906 -79.42016 4354 ft 244 kts 309°
2026-05-08 05:59 8.82884 -79.43398 4338 ft 246 kts 309°
2026-05-08 05:59 8.83886 -79.44805 4311 ft 239 kts 309°
2026-05-08 05:59 8.84836 -79.46125 4267 ft 229 kts 309°
2026-05-08 06:00 8.85763 -79.47408 4218 ft 220 kts 310°
2026-05-08 06:00 8.86649 -79.48634 4171 ft 214 kts 310°
2026-05-08 06:00 8.87595 -79.49787 4116 ft 207 kts 325°
2026-05-08 06:00 8.88852 -79.50374 4053 ft 193 kts 352°
2026-05-08 06:01 8.90135 -79.50295 3938 ft 185 kts 17°
2026-05-08 06:01 8.91240 -79.49681 3729 ft 180 kts 34°
2026-05-08 06:01 8.92235 -79.48912 3536 ft 177 kts 37°
2026-05-08 06:01 8.93182 -79.48109 3352 ft 177 kts 38°
2026-05-08 06:02 8.94118 -79.47295 3169 ft 177 kts 38°
2026-05-08 06:02 8.95044 -79.46489 2988 ft 176 kts 38°
2026-05-08 06:02 8.95976 -79.45679 2806 ft 176 kts 38°
2026-05-08 06:02 8.96972 -79.44929 2615 ft 176 kts 30°
2026-05-08 06:03 8.98004 -79.44304 2349 ft 169 kts 29°
2026-05-08 06:03 8.98988 -79.43716 2107 ft 158 kts 28°
2026-05-08 06:03 8.99906 -79.43166 1880 ft 147 kts 28°
2026-05-08 06:03 9.00768 -79.42649 1682 ft 141 kts 28°
2026-05-08 06:04 9.01606 -79.42142 1476 ft 141 kts 28°
2026-05-08 06:04 9.02460 -79.41624 1216 ft 143 kts 30°
2026-05-08 06:04 9.03324 -79.41094 1009 ft 145 kts 29°
2026-05-08 06:04 9.04192 -79.40569 822 ft 147 kts 29°
2026-05-08 06:05 9.05084 -79.40034 625 ft 149 kts 29°
2026-05-08 06:05 9.06001 -79.39495 419 ft 153 kts 29°
2026-05-08 06:05 9.06922 -79.38943 231 ft 157 kts 30°
2026-05-08 06:05 9.07861 -79.38384 80 ft 147 kts 30°
2026-05-08 06:06 9.08580 -79.37953 114 ft 94 kts 31°
2026-05-08 06:06 9.08985 -79.37708 134 ft 46 kts 31°
2026-05-08 06:06 9.09178 -79.37593 140 ft 26 kts 30°
2026-05-08 06:06 9.09308 -79.37515 142 ft 13 kts 34°
2026-05-08 06:07 9.09327 -79.37446 143 ft 11 kts 109°
2026-05-08 06:07 9.09287 -79.37368 142 ft 13 kts 126°
2026-05-08 06:07 9.09202 -79.37350 141 ft 13 kts 192°
2026-05-08 06:07 9.09108 -79.37378 140 ft 15 kts 197°
2026-05-08 06:08 9.09000 -79.37410 138 ft 16 kts 197°
2026-05-08 06:08 9.08889 -79.37448 135 ft 16 kts 203°
2026-05-08 06:08 9.08781 -79.37503 132 ft 16 kts 206°
2026-05-08 06:08 9.08721 -79.37532 129 ft 5 kts 200°
2026-05-08 06:09 9.08703 -79.37520 129 ft 4 kts 116°
2026-05-08 06:09 9.08686 -79.37488 129 ft 5 kts 120°
2026-05-08 06:09 9.08678 -79.37472 129 ft 0 kts 119°